Find Starlink 5988

NORAD ID: 56320 Int'l Des: 2023-058 Owner: SPXS Country: US Constellation: starlink operational
LEOCIRCULARRETROGRADESSO

当前视图

正在加载3D地球...

About Starlink 5988

Starlink 5988 (NORAD 56320) is a starlink constellation satellite (v1.5) launched Apr 27, 2023 by SPXS of US. It operates in LEO, CIRCULAR, RETROGRADE, SSO orbit with a mass of 300.00 kg.

关于 Starlink 5988

正在加载描述...

即将过境

Passes for default location (London). Set your location on the main map for personalized predictions.

高度历史

Loading altitude history...

两行轨道根数

1 56320U 23058D 26170.92536073 -.00000880 00000-0 -57017-4 0 9997
2 56320 97.3428 169.7538 0002968 106.8366 253.3187 15.05647627173165
Epoch: Jun 19, 2026 • Age: 34 hours

当前状态

高度 561.1 km
速度 7.59 km/s
星下点 82.11°N, 72.61°E
发射日期 Apr 27, 2023
运行时间 3.1 years
类型 internet

技术详情

分类 Payload
质量 300.00 kg
干质量 260.00 kg
总质量 300.00 kg
长度 0.20 m
直径 2.80 m
跨度 9.00 m
形状 Box + pan
制造商 SPXS
平台类型 Starlink
阶段状态 In Orbit
所有者/国家 SPXS/US

Most Searched